Location: Southern.California
(34.1460°N, 118.1120°W)
Time: 07:22:28
(UTC-08:00)

ISS - Pass Details

Date: 28 February 2013
Orbit: 415 x 423 km, 51.6° (Epoch: 28 February)

Event Time Altitude Azimuth Distance (km) Brightness Sun altitude
Rises 18:59:49 0° 315° (NW) 2,362 0.8 -15.6°
Reaches altitude 10° 19:01:55 10° 319° (NW) 1,490 -0.4 -16.0°
Maximum altitude 19:05:13 65° 41° (NE) 460 -3.8 -16.7°
Enters shadow 19:05:58 47° 101° (ESE) 561 -3.6 -16.9°
